Weather History for Bridgeport, CT

Change the Weather History Date:

Saturday, July 7, 2012

  Actual Average Record
Temperature  
Mean Temperature 83 °F 74 °F  
Max Temperature 93 °F 82 °F 95 °F (1993)
Min Temperature 73 °F 66 °F 55 °F (1979)
Degree Days  
Heating Degree Days 0 0  
Month to date heating degree days 0 0  
Since 1 June heating degree days 19 32  
Since 1 July heating degree days 0 0  
Cooling Degree Days 18 9  
Month to date cooling degree days 105 59  
Year to date cooling degree days 331 226  
Since 1 June cooling degree days 272 202  
Growing Degree Days 33 (Base 50)    
Moisture  
Dew Point 69 °F    
Average Humidity 70    
Maximum Humidity 87    
Minimum Humidity 52    
Precipitation  
Precipitation T in 0.10 in 2.01 in (1984)
Month to date precipitation 0.29 0.63  
Year to date precipitation 17.82 22.11  
Snow  
Snow 0.00 in 0.00 in 0.00 in (2002)
Month to date snowfall 0.0 0.0  
Since 1 July snowfall 0.0 0.0  
Snow Depth 0.00 in    
Sea Level Pressure  
Sea Level Pressure 29.82 in    
Wind  
Wind Speed 6 mph (WSW)    
Max Wind Speed 20 mph    
Max Gust Speed 26 mph    
Visibility 10 miles    
Events Rain    
T = Trace of Precipitation, MM = Missing Value Source: NWS Daily Summary

Daily Weather History Graph

Daily Weather History Graph

Search for Another Location

Airport:

Trip Planner

Search our weather history database for the weather conditions in past years. The results will help you decide how hot, cold, wet, or windy it might be!

Date:

Astronomy

Jul. 07, 2012 Rise Set
Actual Time 5:27 AM EDT 8:27 PM EDT
Civil Twilight 4:54 AM EDT 9:00 PM EDT
Nautical Twilight 4:11 AM EDT 9:42 PM EDT
Astronomical Twilight 3:22 AM EDT 10:32 PM EDT
Moon 10:42 PM EDT (7/7) 9:52 AM EDT (7/7)
Length of Visible Light 16h 06m
Length of Day
15h 00m
Waning Gibbous, 82% of the Moon is Illuminated
Jul 7
Waning Gibbous
Jul 10
Last Quarter
Jul 19
New
Jul 26
First Quarter
Aug 1
Full

Hourly Weather History & Observations

Time (EDT) Temp. Heat Index Dew Point Humidity Pressure Visibility Wind Dir Wind Speed Gust Speed Precip Events Conditions
12:52 AM 75.9 °F - 70.0 °F 82% 29.86 in 10.0 mi SSW 5.8 mph - N/A   Clear
1:52 AM 75.9 °F - 71.1 °F 85% 29.86 in 10.0 mi SW 4.6 mph - N/A   Mostly Cloudy
2:52 AM 75.0 °F - 71.1 °F 87% 29.84 in 9.0 mi Calm Calm - N/A   Scattered Clouds
3:52 AM 75.9 °F - 70.0 °F 82% 29.84 in 10.0 mi Calm Calm - N/A   Clear
4:52 AM 75.9 °F - 70.0 °F 82% 29.83 in 10.0 mi SW 3.5 mph - N/A   Clear
5:52 AM 75.0 °F - 69.1 °F 82% 29.83 in 9.0 mi Calm Calm - N/A   Clear
6:52 AM 75.2 °F - 69.8 °F 83% 29.82 in 10.0 mi WSW 4.6 mph - N/A   Clear
7:52 AM 77.0 °F - 69.1 °F 76% 29.83 in 10.0 mi SW 4.6 mph - N/A   Clear
8:52 AM 82.0 °F 85.5 °F 69.1 °F 65% 29.84 in 10.0 mi WSW 3.5 mph - N/A   Clear
9:52 AM 81.0 °F 84.4 °F 70.0 °F 69% 29.82 in 10.0 mi SSW 9.2 mph - N/A   Clear
10:52 AM 82.9 °F 87.0 °F 70.0 °F 65% 29.81 in 10.0 mi SW 9.2 mph - N/A   Clear
11:52 AM 84.0 °F 87.8 °F 69.1 °F 61% 29.81 in 10.0 mi SW 11.5 mph - N/A   Clear
12:52 PM 87.1 °F 90.6 °F 68.0 °F 53% 29.82 in 10.0 mi SW 11.5 mph - N/A   Clear
1:52 PM 90.0 °F 94.5 °F 69.1 °F 50% 29.82 in 10.0 mi WNW 11.5 mph 19.6 mph N/A   Partly Cloudy
2:52 PM 87.1 °F 88.9 °F 64.9 °F 48% 29.79 in 10.0 mi North 11.5 mph 21.9 mph 0.00 in Rain Light Rain
3:52 PM 86.0 °F 87.3 °F 64.0 °F 48% 29.80 in 10.0 mi NW 11.5 mph - 0.00 in   Clear
4:52 PM 87.1 °F 91.3 °F 69.1 °F 55% 29.78 in 10.0 mi WSW 8.1 mph - N/A   Clear
5:52 PM 82.9 °F 87.5 °F 71.1 °F 67% 29.77 in 10.0 mi SW 6.9 mph - N/A   Partly Cloudy
6:52 PM 84.9 °F 87.1 °F 66.0 °F 53% 29.78 in 10.0 mi NW 11.5 mph - N/A   Mostly Cloudy
7:52 PM 82.9 °F 85.0 °F 66.0 °F 56% 29.78 in 10.0 mi NW 5.8 mph - N/A   Clear
8:52 PM 81.0 °F 83.3 °F 66.9 °F 62% 29.78 in 10.0 mi NNW 6.9 mph - N/A   Mostly Cloudy
9:52 PM 80.1 °F 82.3 °F 66.9 °F 64% 29.81 in 10.0 mi Calm Calm - N/A   Overcast
10:52 PM 78.1 °F - 70.0 °F 76% 29.82 in 10.0 mi Calm Calm - N/A   Overcast
11:52 PM 77.0 °F - 70.0 °F 79% 29.82 in 10.0 mi Calm Calm - N/A   Overcast